"Riverside county, Hemet CA",,
Date,SR,Rain
9/1/2014,0.993794491,0
9/2/2014,1.002661579,0
9/3/2014,1.00257112,0
9/4/2014,1.002480324,0
9/5/2014,1.002392773,0
9/6/2014,0.993794491,0
9/7/2014,1.002305221,13.81
9/8/2014,0.991054312,0
9/9/2014,1.011621488,0
9/10/2014,1.001906813,0
9/11/2014,0.992194236,0
9/12/2014,0.992193187,0
9/13/2014,0.982115168,0
9/14/2014,0.980448897,0
9/15/2014,0.980448897,0
9/16/2014,0.980448897,0
9/17/2014,0.980448897,0
9/18/2014,0.973507768,0
9/19/2014,0.980448897,0
9/20/2014,0.980448897,0
9/21/2014,0.980448897,0
9/22/2014,0.980448897,0
9/23/2014,0.973507768,0
9/24/2014,0.973507768,0
9/25/2014,0.981312975,0
9/26/2014,0.981312975,0
9/27/2014,0.973507768,0
9/28/2014,0.973186922,0
9/29/2014,0.973186922,0
9/30/2014,0.972683124,0
10/1/2014,0.972683124,0
10/2/2014,0.972683124,0
10/3/2014,0.972683124,0
10/4/2014,0.973186922,0
10/5/2014,0.972683124,0
10/6/2014,0.972138475,0
10/7/2014,0.97169243,0
10/8/2014,0.970124783,0
10/9/2014,0.9600903,0
10/10/2014,0.960085892,0
10/11/2014,0.959378252,0
10/12/2014,0.960088096,0
10/13/2014,0.959378252,0
10/14/2014,0.959732072,0
10/15/2014,0.944844305,0
10/16/2014,0.958094348,0
10/17/2014,0.959378252,0
10/18/2014,0.960085892,0
10/19/2014,0.966818446,0
10/20/2014,0.966882351,0
10/21/2014,0.97874637,0
10/22/2014,0.97874637,0
10/23/2014,0.97874637,0
10/24/2014,0.97874637,0
10/25/2014,0.97874637,0
10/26/2014,0.97874637,0
10/27/2014,0.97874637,0
10/28/2014,0.987853129,0
10/29/2014,0.987853129,0
10/30/2014,0.987853129,0
10/31/2014,0.995187524,6.81
11/1/2014,1.008437705,0.01
11/2/2014,1.021357342,0
11/3/2014,1.010678671,0
11/4/2014,1,0
11/5/2014,1,0
11/6/2014,1,0
11/7/2014,1,0
11/8/2014,1,0
11/9/2014,1,0
11/10/2014,1,0
11/11/2014,,0
11/12/2014,1,0
11/13/2014,1,0
11/14/2014,1,0
11/15/2014,1,0
11/16/2014,1,0
11/17/2014,1.011985942,0
11/18/2014,1,0
11/19/2014,1,0
11/20/2014,1,0.15
11/21/2014,1,1.58
11/22/2014,1,0
11/23/2014,1,0
11/24/2014,1,0
11/25/2014,1,0
11/26/2014,1,0
11/27/2014,1,0
11/28/2014,1,0
11/29/2014,1,0
11/30/2014,,0
12/1/2014,,0
12/2/2014,,23.48
12/3/2014,,44.65
12/4/2014,,13.21
12/5/2014,,0
12/6/2014,1,0
12/7/2014,1,0
12/8/2014,1.011917574,0
12/9/2014,1.012646429,0
12/10/2014,1.013321598,0
12/11/2014,1.013439523,0.23
12/12/2014,,19.97
12/13/2014,1.013439523,0
12/14/2014,1.013439523,0
12/15/2014,,0
12/16/2014,,2.73
12/17/2014,,4.81
12/18/2014,1.011954256,0
12/19/2014,1.011954256,0
12/20/2014,,0
12/21/2014,1,0
12/22/2014,1,0
12/23/2014,1,0
12/24/2014,1,0
12/25/2014,1,0
12/26/2014,1,0
12/27/2014,1,0
12/28/2014,1,0
12/29/2014,1,0
12/30/2014,,5.95
12/31/2014,1,0.36
1/1/2015,1.012054698,0
1/2/2015,1.012054698,0
1/3/2015,1.012054698,0
1/4/2015,1.012054698,0
1/5/2015,1.012054698,0
1/6/2015,1,0
1/7/2015,1,0
1/8/2015,1,0
1/9/2015,1,0
1/10/2015,,0.57
1/11/2015,,5.63
1/12/2015,1,0
1/13/2015,1,0
1/14/2015,1,0
1/15/2015,1,0
1/16/2015,1,0
1/17/2015,1,0
1/18/2015,1,0
1/19/2015,1,0
1/20/2015,1,0
1/21/2015,1,0
1/22/2015,1,0
1/23/2015,1,0
1/24/2015,1,0
1/25/2015,1,0
1/26/2015,,8.06
1/27/2015,1,0
1/28/2015,1,0
1/29/2015,,0.01
1/30/2015,,1.4
1/31/2015,1,0
2/1/2015,1,0
2/2/2015,1,0
2/3/2015,1,0
2/4/2015,1,0
2/5/2015,1,0
2/6/2015,1,0
2/7/2015,1,0
2/8/2015,1,0
2/9/2015,1,0
2/10/2015,1,0
2/11/2015,1,0
2/12/2015,1,0
2/13/2015,0.989857369,0
2/14/2015,0.989857369,0
2/15/2015,0.989854958,0
2/16/2015,0.989857369,0
2/17/2015,0.994711499,0
2/18/2015,0.989705731,0
2/19/2015,1,0
2/20/2015,1,0
2/21/2015,1,0
2/22/2015,,10.23
2/23/2015,,2.12
2/24/2015,1,0
2/25/2015,1,0
2/26/2015,1,0
2/27/2015,,0.27
2/28/2015,,3.11
3/1/2015,,8.02
3/2/2015,,4.6
3/3/2015,0.990460771,0
3/4/2015,1,0
3/5/2015,1,0
3/6/2015,1,0
3/7/2015,1,0
3/8/2015,1,0
3/9/2015,1,0
3/10/2015,1,0
3/11/2015,,0
3/12/2015,1,0
3/13/2015,1,0
3/14/2015,0.990688058,0
3/15/2015,0.990688058,0
3/16/2015,0.990688058,0
3/17/2015,0.990918678,0
3/18/2015,0.990918678,0
3/19/2015,0.990918678,0
3/20/2015,0.990918678,0
3/21/2015,0.990852586,0
3/22/2015,0.990852586,0
3/23/2015,0.990852586,0
3/24/2015,0.990918678,0
3/25/2015,0.990918678,0
3/26/2015,0.990933831,0
3/27/2015,0.990933831,0
3/28/2015,0.990933831,0
3/29/2015,0.990885689,0
3/30/2015,0.990933831,0
3/31/2015,0.995442844,0
4/1/2015,1,0
4/2/2015,0.995442844,0
4/3/2015,0.990097218,0
4/4/2015,1,0
4/5/2015,0.990642783,0
4/6/2015,0.990097218,0
4/7/2015,0.990097218,1.84
4/8/2015,0.981646874,0
4/9/2015,0.981647397,0
4/10/2015,0.98614509,0
4/11/2015,0.990642783,0
4/12/2015,0.995321392,0
4/13/2015,0.990938276,0
4/14/2015,0.990938276,0
4/15/2015,0.990938276,0
4/16/2015,0.990963808,0
4/17/2015,0.990967185,0
4/18/2015,0.99095273,0
4/19/2015,0.990590423,0
4/20/2015,0.980948772,0
4/21/2015,,0
4/22/2015,0.990240504,0
4/23/2015,,0.07
4/24/2015,,0.08
4/25/2015,,0.68
4/26/2015,0.981978049,0
4/27/2015,0.981978049,0
4/28/2015,0.981648425,0
4/29/2015,0.981647948,0
4/30/2015,0.980769231,0
5/1/2015,0.980212926,0
5/2/2015,0.972940025,0
5/3/2015,0.972496925,0
5/4/2015,0.972477055,0
5/5/2015,0.972477055,0
5/6/2015,0.972477055,0
5/7/2015,0.972477055,3.79
5/8/2015,,6.88
5/9/2015,,0
5/10/2015,0.97000654,0
5/11/2015,0.97000654,0
5/12/2015,0.97000654,0
5/13/2015,0.97000654,0
5/14/2015,,14.2
5/15/2015,,9.38
5/16/2015,,0
5/17/2015,0.974428995,0
5/18/2015,0.974428995,0
5/19/2015,0.974428995,0
5/20/2015,0.974428995,0
5/21/2015,0.974428995,0.19
5/22/2015,,0.41
5/23/2015,,0.05
5/24/2015,,0.01
5/25/2015,0.962962963,0
5/26/2015,0.95985891,0
5/27/2015,0.961898545,0
5/28/2015,0.959326702,0
5/29/2015,0.954485888,0
5/30/2015,0.952216917,0
5/31/2015,0.952216917,0
6/1/2015,0.951027788,0
6/2/2015,0.945753321,0
6/3/2015,0.943909212,0
6/4/2015,0.943909212,0
6/5/2015,0.942844432,0
6/6/2015,0.942843109,0
6/7/2015,0.942726301,0
6/8/2015,0.934150489,0
6/9/2015,0.931600035,0
6/10/2015,0.922315689,0
6/11/2015,0.922315512,0
6/12/2015,0.922312995,0
6/13/2015,0.916666667,0
6/14/2015,0.916068838,0
6/15/2015,0.909345426,0
6/16/2015,0.904743031,0
6/17/2015,0.896392224,0
6/18/2015,0.889880345,0
6/19/2015,0.871534823,0
6/20/2015,0.87153088,0
6/21/2015,0.87153088,0
6/22/2015,0.869138893,0
6/23/2015,0.869132152,0
6/24/2015,0.869130766,0
6/25/2015,0.86912967,0
6/26/2015,0.875,0
6/27/2015,0.855852433,0
6/28/2015,0.869128574,0
6/29/2015,0.869128574,0
6/30/2015,0.869128574,6.89
7/1/2015,,0
7/2/2015,0.980392157,0
7/3/2015,0.980085243,0
7/4/2015,0.979778329,0
7/5/2015,0.979679572,0
7/6/2015,0.971043362,0
7/7/2015,0.970465988,0
7/8/2015,0.967057544,0
7/9/2015,0.962264151,0
7/10/2015,0.964478803,0
7/11/2015,0.96189885,0
7/12/2015,0.961722434,0
7/13/2015,0.962264151,0
7/14/2015,0.953428045,0
7/15/2015,0.962264151,0
7/16/2015,0.962264151,0
7/17/2015,0.962608327,0.16
7/18/2015,,20.83
7/19/2015,0.972832409,17.99
7/20/2015,0.972832409,0
7/21/2015,0.979166667,0
7/22/2015,0.979996755,0
7/23/2015,0.98130494,0
7/24/2015,0.98130494,0
7/25/2015,0.981305196,0
7/26/2015,0.981481481,0
7/27/2015,0.981481481,0
7/28/2015,0.981481481,0
7/29/2015,0.981481481,0
7/30/2015,0.981481481,1.21
7/31/2015,0.981481481,0
8/1/2015,0.977937958,0
8/2/2015,0.972386166,0
8/3/2015,0.972386166,0
8/4/2015,0.977937958,0
8/5/2015,,0
8/6/2015,,0
8/7/2015,0.981304404,0
8/8/2015,0.976834125,0
8/9/2015,0.981648073,0
8/10/2015,0.985914716,0
8/11/2015,0.981304404,0
8/12/2015,,0
